Location: Kumla
(59.1265°N, 15.1401°E)
Time: 16:16:45
(UTC+01:00)

A-11 Canister half - Pass Details

Date: 08 December 2023
Orbit: 1526 x 1682 km, 47.3° (Epoch: 24 February)

Event Time Altitude Azimuth Distance (km) Brightness Sun altitude
Rises 16:04:02 0° 167° (SSE) 4,915 11.9 -6.8°
Reaches altitude 10° 16:11:54 10° 129° (SE) 3,943 11.0 -7.6°
Maximum altitude 16:12:51 10° 124° (SE) 3,930 10.9 -7.7°
Drops below altitude 10° 16:13:48 10° 118° (ESE) 3,944 10.9 -7.8°
Enters shadow 16:19:39 - 88° (E) 4,558 10.9 -8.5°
Sets 16:21:37 0° 81° (E) 4,922 - -8.7°
